SCOUT A DEB, 3214

Orbit data source: Space-Track

SCOUT A DEB, 3214 is space debris in LEO originally from a launch on Sat, 02 Mar 1968 UTC launched from the Air Force Western Test Range (AFWTR). Debris objects in space refer to the collection of defunct objects orbiting the Earth. Examples of debris include non-operational satellites, rocket bodies, and fragments generated from explosions, collisions, or faulty payload assembly.

Loading next visibility...
Identifier
3214, 1968-012D
Orbit
LEO
Country
Flag of USUS
Related business
Manufacturer
Unknown
Mission
Spacecraft
Bus & Motor
Unknown
Mass
Unknown
Launch date (UTC)
1968-03-02 (58 years ago)
Launch vehicle
Unknown
Launch site
Air Force Western Test Range (AFWTR)
Object type
Payload
Rocket body
Debris
Shape & HBR
Unknown shape, 0.1 m
Radar Cross Section
Small (<0.1 m²)

Expand to show TLE details & history
Last TLE update: 1 day ago

TLE from 1 day ago
0 SCOUT A DEB
1  3214U 68012D   26119.91584156  .00000183  00000-0  34009-3 0  9996
2  3214  89.8137 104.3917 0187039  32.9993  39.6393 13.29273326578120
Epoch: 2026-04-29T21:58Z
TLE epoch observation values (Epoch: 2026-04-29T21:58:48.710Z)
Latitude
74.08839°
Longitude
-82.53106°
Altitude
1,054.955 km
Speed
7.383 km/s
True Right ascension
07h 00m 10s
True Declination
74° 00' 04"
Sunlit
Object was in daylight at epoch
Visualization orbit readout
Latitude
Unknown
Longitude
Unknown
Altitude
Unknown
Speed
Unknown
Apparent Right ascension
Unknown
Apparent Declination
Unknown
Sunlit
N/A
Visualization observer readout
Local Sidereal Time
10:28:27
Azimuth
Unknown
Elevation
Unknown
Doppler factor
Unknown
Orbital elements
Apogee altitude
1,287.326 km
Perigee altitude
1,005.843 km
Semi-major axis
7,524.721 km
Eccentricity
0.0187
Inclination
89.8137°
RAAN
104.3917°
Arg. of periapsis
32.9993°
True anomaly
41.03154°
Mean anomaly
39.6393°
Eccentric anomaly
40.3329°
Mean motion
3.32512 °/min
Orbital period
108.27 mins
BSTAR
0.00034009
Loading maneuver chart data...
Computing Atmospheric mass density...
Loading historical data...
Loading historical data...
Loading historical data...
Loading historical data...
Loading historical data...
Loading historical data...
Loading historical data...

Documentation

Showing up to 5 results
|